Temperature
8 8 9 9 9 9 9 9 9 9 9 9 9 9 9 9 9 9 9 9 9 9 9 9 9 9 9 9 9 9 9 9 10 10 10 10 11 11 11 11 11 11 11
8 8 8 8 8 8 8 8 8 8 8 8 8 8 8 8 8 8 8 8 8 8 8 8 8 8 9 9 9 9 9 9 9 9 9 9 10 10 10 10 11 11 11
8 8 8 8 8 8 8 8 8 8 8 8 8 8 8 8 8 8 8 8 8 8 8 8 8 8 8 8 8 8 8 8 8 8 8 9 10 9 10 10 10 10 10
7 7 7 8 8 8 8 8 8 8 7 7 7 7 7 7 7 7 7 7 7 7 7 7 7 7 7 7 7 7 7 7 7 8 8 8 8 8 9 9 9 9 10
7 7 7 7 7 7 7 7 7 7 7 7 7 6 6 6 6 6 6 7 7 7 7 7 7 7 7 7 7 7 7 7 7 7 7 7 7 7 8 8 8 8 9
7 7 7 7 7 7 7 7 7 7 7 7 6 6 6 6 6 6 6 6 6 6 6 6 6 6 6 6 6 6 6 6 6 6 6 7 6 7 7 7 7 7 8
6 6 6 7 7 6 6 6 6 6 6 6 6 6 6 5 5 5 5 5 6 6 6 6 6 6 6 6 6 6 6 6 6 6 6 6 6 6 6 6 6 6 6
6 6 6 6 6 6 6 6 6 6 6 6 6 5 5 5 5 5 5 5 5 5 5 5 5 5 5 5 5 5 5 5 5 5 5 5 5 6 6 6 5 5 5
6 6 6 6 6 6 6 6 6 6 6 5 5 5 5 5 4 5 5 5 5 5 5 5 5 5 5 5 5 5 5 4 5 5 5 5 5 5 5 5 5 5 4
6 6 6 6 6 6 5 5 5 5 5 5 5 5 5 4 4 4 4 4 5 5 5 5 5 4 4 4 4 4 4 4 4 4 4 4 4 4 4 4 4 4 4
6 6 6 6 6 5 5 5 5 5 5 5 4 4 4 4 4 4 4 4 4 4 4 4 4 4 4 4 4 4 4 4 4 4 4 4 4 4 4 4 4 4 3
6 6 6 5 5 5 5 5 5 5 5 4 4 4 4 4 4 4 4 4 4 4 4 4 4 4 4 3 3 3 3 3 3 3 3 3 3 3 3 3 3 3 3
6 5 5 5 5 5 5 5 5 5 4 4 4 4 4 4 3 3 3 4 3 3 3 3 3 3 3 3 3 3 3 3 3 3 3 3 3 3 3 3 2 2 2
5 5 5 5 5 5 5 5 5 4 4 4 4 4 3 3 3 3 3 3 3 3 3 3 3 3 3 3 3 2 2 2 2 2 2 2 2 2 2 2 2 2 2
5 5 5 5 5 5 5 5 5 4 4 4 4 3 3 3 3 3 3 3 3 3 3 2 2 2 2 2 2 2 2 2 2 2 2 2 2 2 2 1 1 1 1
5 5 5 5 5 5 5 5 4 4 4 4 3 3 3 3 3 2 2 2 2 2 2 2 2 2 2 2 2 1 1 1 1 1 1 1 1 1 1 1 1 1 1
5 5 5 5 5 5 5 5 4 4 4 3 3 3 3 2 2 2 2 2 2 2 2 2 1 1 1 1 1 1 1 1 1 1 1 1 1 1 1 1 1 0 0
5 5 5 5 5 5 4 4 4 4 3 3 3 3 2 2 2 2 2 2 1 1 1 1 1 1 1 1 1 1 1 1 0 0 0 0 0 0 0 0 0 -0 -0
5 5 5 5 5 4 4 4 4 3 3 3 3 2 2 2 2 2 1 1 1 1 1 1 0 0 0 0 0 0 -0 -0 -0 -0 -0 -0 -0 -0 -0 -0 -1 -1 -0
5 5 5 4 4 4 4 4 3 3 3 3 2 2 2 2 2 1 1 1 1 0 0 0 0 -0 -0 -0 -0 -1 -1 -1 -1 -1 -1 -1 -1 -1 -1 -1 -1 -1 -1
5 5 4 4 4 4 4 4 3 3 3 2 2 2 2 1 1 1 1 0 0 0 -0 -0 -0 -1 -1 -1 -1 -1 -2 -1 -1 -1 -1 -1 -1 -1 -1 -2 -2 -2 -2
5 4 4 4 4 4 4 3 3 3 2 2 2 2 1 1 1 1 0 0 -0 -0 -0 -1 -1 -1 -1 -1 -1 -2 -2 -2 -2 -2 -2 -2 -2 -2 -2 -2 -2 -2 -2
4 4 4 4 4 3 3 3 3 3 2 2 2 1 1 1 0 0 -0 -0 -1 -1 -1 -1 -1 -1 -1 -2 -2 -2 -2 -2 -3 -3 -3 -3 -2 -3 -3 -2 -2 -2 -2
4 4 3 3 3 3 3 3 2 2 2 2 1 1 1 1 0 -0 -0 -1 -1 -1 -1 -2 -2 -2 -2 -2 -2 -2 -3 -3 -3 -3 -3 -3 -3 -3 -3 -3 -3 -3 -3
3 3 3 3 3 3 3 2 2 2 2 1 1 1 0 0 0 -0 -1 -1 -1 -2 -2 -2 -2 -3 -2 -2 -3 -3 -3 -3 -3 -4 -4 -4 -4 -4 -4 -4 -4 -4 -4
3 3 3 3 3 2 2 2 2 1 1 1 1 0 0 -0 -0 -1 -1 -1 -1 -1 -2 -2 -3 -3 -3 -3 -3 -3 -3 -3 -4 -4 -4 -4 -4 -4 -4 -4 -4 -4 -4
Wind_Speed
4 2 2 1 1 2 3 4 4 5 4 3 3 3 4 4 4 4 5 6 6 6 5 4 5 5 5 5 6 6 6 6 5 6 7 7 8 9 8 8 8 8 9
4 3 2 1 1 2 3 4 4 4 4 4 4 3 4 4 4 4 5 6 6 6 5 5 5 5 5 6 5 5 5 5 5 5 5 5 6 7 7 6 7 8 7
6 4 3 2 2 2 3 3 4 4 4 4 3 3 3 3 3 4 4 5 6 6 5 5 5 5 5 5 5 5 6 6 6 5 5 4 5 4 5 7 6 6 6
5 5 4 3 2 2 2 3 3 4 4 4 4 4 4 4 5 5 5 5 6 6 6 5 5 5 5 5 5 5 6 6 6 6 6 6 5 5 4 4 5 5 5
5 5 4 3 3 2 2 2 3 4 4 4 4 4 4 4 4 5 5 5 5 6 6 5 5 5 5 5 6 5 6 6 6 6 6 7 6 7 6 6 5 5 5
5 5 3 3 2 2 2 2 3 4 4 4 4 4 4 5 5 6 5 5 4 5 6 6 5 5 5 5 6 6 6 6 7 6 6 6 6 6 6 6 6 6 5
5 5 4 4 3 3 2 2 3 3 4 4 4 4 4 5 5 5 5 5 5 5 6 6 5 5 5 6 6 5 5 6 7 7 6 6 7 6 6 6 6 6 5
4 5 5 5 4 4 3 3 3 3 3 4 4 4 4 4 4 5 5 5 5 5 6 6 6 6 6 6 5 5 5 5 6 7 7 6 6 6 6 6 6 6 6
4 5 5 5 5 4 4 4 4 4 3 4 4 4 4 4 5 5 5 5 5 5 6 6 6 6 6 6 6 5 5 5 6 6 7 7 6 6 6 6 6 7 7
4 5 5 5 5 5 4 4 3 4 3 3 4 4 5 5 5 5 6 6 6 6 6 6 6 6 5 5 5 5 5 6 6 5 7 7 6 6 6 6 6 7 7
5 5 5 5 5 4 4 4 3 3 3 3 4 4 4 5 5 5 6 6 6 6 6 6 6 6 5 5 5 5 5 6 6 6 6 7 7 6 5 6 6 6 6
5 5 5 5 5 5 5 4 4 4 4 3 4 4 4 4 5 5 6 6 6 6 6 6 6 6 5 5 5 5 6 7 7 7 7 7 5 7 6 6 7 7 7
6 6 5 5 5 5 5 5 4 4 4 3 4 4 4 4 5 5 6 6 6 6 6 6 6 5 5 5 5 6 6 7 7 7 7 6 6 7 6 7 7 6 6
7 6 6 6 6 6 5 5 5 4 4 4 4 4 4 4 5 5 5 5 5 5 5 6 5 5 5 5 5 6 6 6 6 6 6 6 6 7 7 7 7 7 7
7 7 6 6 6 5 5 5 5 4 4 4 4 4 4 4 4 5 5 5 5 5 5 5 5 5 4 5 5 5 6 6 6 6 6 6 6 7 7 6 7 7 7
7 7 7 6 6 6 5 5 5 5 4 5 5 4 4 4 4 4 5 5 5 5 5 5 5 5 4 6 7 6 5 5 5 5 5 5 6 7 8 9 9 9 9
7 7 7 7 6 6 6 6 5 4 4 5 4 4 4 4 4 4 4 4 5 5 5 5 5 5 6 7 7 7 5 5 5 6 6 5 5 7 7 8 9 9 11
7 7 6 6 6 6 5 5 5 5 5 5 5 5 4 4 4 4 4 5 4 4 4 5 5 5 6 7 8 8 6 5 5 6 6 6 7 6 7 7 7 8 8
7 6 6 6 5 5 5 5 5 5 5 6 6 5 5 5 4 5 5 4 4 4 5 5 5 6 6 6 7 8 5 5 6 6 6 7 7 7 8 7 7 7 7
6 5 5 5 5 5 5 6 6 6 6 6 6 5 5 5 5 5 5 4 4 5 5 5 5 6 6 7 7 8 5 5 5 5 6 6 7 8 8 7 7 7 7
6 5 5 5 5 4 5 6 6 7 7 6 5 5 5 5 5 5 5 4 4 5 5 6 5 6 6 7 7 8 5 5 6 5 5 5 6 8 8 8 6 7 8
6 6 5 5 4 4 5 6 7 7 5 5 5 5 5 5 4 5 5 4 4 5 5 5 6 5 5 6 7 8 7 7 6 5 5 5 8 8 8 7 6 8 7
7 6 6 5 5 5 6 7 7 5 5 5 5 5 5 5 5 5 5 4 4 4 5 5 5 5 5 5 7 8 8 8 6 5 7 8 8 8 6 6 7 7 4
7 6 6 6 6 5 6 7 6 4 5 5 5 5 5 5 4 4 4 4 4 4 5 5 6 6 6 5 4 5 5 6 6 6 6 7 7 6 6 6 5 4 4
6 6 6 7 7 6 6 6 5 5 6 6 5 5 5 5 5 5 5 6 6 6 6 6 6 6 7 7 8 6 5 5 5 6 5 4 4 4 3 4 4 4 4
7 6 7 7 7 6 6 6 5 6 6 6 5 5 4 4 4 4 5 7 8 9 10 9 9 8 10 11 10 10 9 8 7 6 5 4 4 4 4 4 4 4 4
Wind_Direction
246 246 241 253 320 342 346 345 344 347 348 343 336 330 327 325 325 328 326 322 319 315 306 295 290 283 271 267 266 267 265 264 270 268 267 262 250 242 238 237 238 236 237
232 226 229 249 289 321 337 338 338 337 339 332 322 310 311 313 316 319 324 323 320 313 306 296 287 280 273 268 267 267 266 264 257 257 266 263 255 240 237 236 236 238 235
237 230 230 252 279 309 323 329 332 329 330 328 318 313 308 301 302 313 320 327 324 316 309 301 292 286 277 271 269 263 259 261 260 250 247 253 249 269 239 240 238 240 240
234 232 231 243 267 287 304 315 322 326 329 327 317 313 305 305 308 313 313 321 326 324 314 304 297 290 282 273 270 265 262 257 256 253 247 255 268 255 250 239 244 248 251
229 229 230 238 253 272 287 301 314 321 328 328 322 313 307 307 309 307 308 316 323 325 323 312 302 292 285 279 273 268 260 254 251 250 250 250 258 259 253 254 252 256 258
224 225 226 233 241 259 274 289 303 315 325 327 324 317 310 308 308 308 309 312 314 319 324 321 309 299 291 283 277 270 263 258 254 251 248 247 243 249 251 255 258 260 262
221 220 224 231 238 249 266 280 291 303 317 321 322 318 311 307 304 306 307 308 308 311 316 316 310 303 296 287 279 271 266 261 257 254 250 250 247 251 256 260 266 268 272
227 229 233 237 240 247 257 270 282 291 304 311 315 315 313 307 304 305 304 304 303 304 308 308 304 300 293 286 277 269 265 262 259 258 256 253 252 250 250 253 260 268 266
233 240 241 240 242 245 252 263 274 282 291 301 307 308 310 305 305 305 303 300 299 301 305 304 303 301 296 287 280 269 266 264 262 261 259 256 254 250 251 252 250 250 257
248 251 247 244 244 245 248 251 259 271 283 296 301 302 304 304 303 304 304 304 304 301 300 301 299 297 294 289 280 274 265 264 264 263 260 259 257 252 252 250 249 249 253
259 255 254 253 251 248 246 246 252 265 276 287 295 299 302 304 305 302 302 303 303 301 300 300 297 296 294 286 278 275 271 265 264 263 262 263 259 253 251 249 247 249 251
261 257 255 254 249 244 241 242 245 253 264 274 282 291 298 302 303 305 306 305 303 301 303 301 295 293 290 285 279 277 273 266 264 262 261 261 256 253 251 247 245 247 251
265 259 253 250 247 244 240 239 240 245 256 265 274 285 295 301 304 308 309 308 307 307 309 307 298 293 292 289 285 282 279 270 266 266 263 261 256 255 255 254 252 251 253
266 261 257 253 249 246 243 241 241 242 248 256 265 276 287 295 301 305 308 310 311 311 313 314 308 303 302 299 296 291 289 283 274 268 266 263 258 259 263 260 260 259 258
269 264 263 261 253 249 245 242 239 238 241 247 258 271 283 292 298 303 308 312 315 317 317 317 318 317 312 308 305 302 296 293 289 279 270 266 263 265 264 263 262 259 257
272 268 264 260 257 250 245 239 235 233 234 243 255 269 280 287 293 300 304 309 314 317 318 321 323 323 322 320 311 306 297 293 289 288 287 280 271 272 270 269 264 259 254
272 266 261 257 254 249 242 237 232 227 230 242 254 263 271 278 286 295 298 302 308 312 313 317 318 317 320 322 318 313 304 295 293 291 288 286 283 279 275 274 271 267 262
274 269 265 261 256 249 240 234 227 222 228 239 248 255 263 272 281 286 289 294 299 303 306 309 309 308 314 323 322 320 307 300 296 292 290 286 284 281 283 279 274 272 272
274 269 265 264 256 246 234 224 223 225 231 240 247 250 255 263 270 275 281 287 290 295 300 300 303 305 310 320 322 320 308 299 297 295 294 288 284 286 287 279 273 274 277
276 272 267 259 251 243 225 220 226 228 235 241 246 249 248 252 259 266 275 280 282 287 294 295 296 299 303 313 317 319 307 300 300 302 304 298 296 300 297 283 275 277 285
281 274 264 256 253 242 220 225 231 236 241 241 244 246 245 247 253 263 269 274 279 284 289 293 294 295 298 307 311 313 312 304 304 305 307 309 307 307 305 297 282 279 287
278 270 262 261 255 234 220 230 240 244 240 235 239 243 244 245 247 253 262 268 273 278 287 291 294 295 297 298 305 308 308 312 303 302 305 310 312 308 308 304 296 296 295
272 264 256 258 255 234 222 235 246 241 229 230 238 243 244 244 247 250 257 263 265 271 281 285 290 295 298 297 298 302 305 307 304 302 306 309 311 306 302 304 307 306 298
268 261 255 255 255 244 232 240 245 229 224 233 240 242 242 245 246 248 249 254 256 261 270 278 284 289 290 292 297 299 300 301 300 301 303 306 307 299 296 301 304 302 297
265 255 250 254 257 254 245 242 237 222 227 236 239 239 239 243 245 247 250 253 254 258 266 270 276 282 283 287 293 296 293 295 294 300 299 301 306 310 307 306 304 301 299
261 253 250 252 255 254 250 243 227 219 225 234 238 237 239 241 246 255 264 251 256 265 265 269 275 279 282 292 291 289 287 286 287 291 289 292 297 300 303 304 306 307 307
Height
1513 1513 1513 1512 1512 1511 1511 1510 1508 1507 1505 1504 1502 1501 1500 1499 1498 1497 1496 1495 1494 1493 1492 1492 1491 1491 1491 1490 1491 1491 1491 1490 1491 1491 1490 1490 1489 1490 1490 1491 1492 1493 1494
1511 1511 1510 1510 1510 1509 1508 1507 1506 1505 1503 1501 1500 1499 1497 1495 1494 1493 1492 1491 1490 1489 1489 1488 1487 1487 1487 1486 1486 1486 1486 1486 1486 1487 1487 1486 1486 1484 1485 1485 1486 1487 1488
1508 1508 1507 1507 1507 1507 1506 1505 1504 1502 1501 1499 1497 1496 1494 1492 1491 1490 1488 1487 1486 1485 1484 1484 1483 1482 1482 1482 1481 1482 1481 1481 1482 1482 1483 1482 1481 1480 1479 1480 1481 1481 1482
1505 1505 1505 1505 1505 1504 1504 1502 1501 1500 1498 1496 1495 1493 1491 1490 1488 1487 1485 1483 1482 1481 1480 1479 1478 1478 1478 1477 1477 1477 1477 1477 1477 1477 1477 1478 1478 1478 1475 1475 1476 1476 1476
1502 1502 1502 1502 1502 1502 1501 1500 1499 1498 1496 1494 1492 1491 1489 1487 1485 1483 1481 1480 1478 1477 1476 1475 1474 1473 1473 1472 1472 1472 1472 1472 1472 1472 1472 1472 1472 1472 1472 1470 1470 1471 1471
1500 1500 1500 1500 1500 1499 1498 1497 1496 1495 1493 1492 1490 1488 1486 1484 1482 1481 1479 1477 1475 1474 1473 1471 1470 1469 1468 1468 1467 1467 1467 1467 1467 1467 1467 1467 1467 1467 1467 1466 1465 1465 1465
1498 1498 1498 1498 1497 1497 1496 1495 1493 1492 1491 1489 1487 1486 1484 1482 1480 1478 1476 1474 1472 1471 1469 1468 1466 1465 1464 1463 1463 1462 1462 1462 1462 1462 1462 1462 1462 1462 1463 1462 1461 1460 1460
1496 1496 1496 1495 1495 1494 1493 1492 1491 1489 1488 1487 1485 1483 1481 1479 1477 1476 1474 1472 1470 1468 1466 1465 1463 1461 1460 1459 1458 1458 1457 1457 1457 1457 1457 1457 1457 1457 1457 1458 1457 1456 1455
1494 1493 1493 1493 1492 1492 1491 1489 1488 1487 1486 1484 1482 1481 1479 1477 1475 1473 1471 1469 1467 1465 1463 1461 1460 1458 1457 1455 1454 1453 1453 1453 1452 1452 1452 1452 1452 1452 1452 1452 1453 1454 1452
1491 1491 1491 1490 1490 1489 1488 1487 1486 1485 1483 1482 1480 1478 1476 1474 1472 1470 1468 1466 1464 1462 1460 1458 1456 1455 1453 1451 1450 1449 1448 1448 1448 1447 1447 1447 1447 1447 1447 1447 1447 1448 1447
1489 1488 1488 1487 1487 1486 1485 1484 1483 1482 1481 1479 1477 1475 1474 1472 1470 1468 1466 1463 1461 1459 1457 1455 1453 1451 1449 1448 1447 1445 1445 1444 1443 1443 1442 1442 1442 1442 1442 1442 1442 1442 1441
1486 1486 1485 1484 1483 1483 1482 1481 1480 1479 1478 1476 1475 1473 1471 1469 1467 1465 1463 1461 1459 1457 1455 1452 1450 1448 1446 1445 1443 1442 1441 1440 1439 1438 1437 1437 1437 1436 1436 1436 1436 1436 1435
1483 1483 1482 1481 1480 1480 1479 1478 1477 1476 1475 1473 1472 1470 1468 1466 1464 1462 1460 1458 1456 1454 1452 1449 1447 1445 1443 1442 1440 1438 1437 1436 1435 1434 1433 1432 1432 1431 1431 1431 1431 1430 1430
1480 1479 1478 1478 1477 1476 1476 1475 1474 1473 1472 1470 1469 1467 1465 1463 1462 1460 1458 1455 1453 1451 1449 1447 1444 1442 1440 1438 1437 1435 1433 1432 1431 1430 1428 1428 1427 1427 1426 1426 1426 1425 1425
1476 1475 1474 1474 1473 1473 1472 1472 1471 1470 1469 1468 1466 1464 1462 1461 1459 1457 1455 1453 1450 1448 1446 1444 1442 1440 1438 1435 1433 1432 1430 1428 1427 1425 1424 1423 1423 1422 1422 1421 1420 1420 1419
1472 1472 1471 1470 1469 1469 1468 1468 1467 1466 1465 1464 1463 1462 1460 1458 1456 1455 1452 1450 1448 1446 1444 1441 1439 1437 1435 1433 1431 1429 1427 1425 1423 1421 1420 1419 1419 1417 1416 1416 1415 1415 1414
1469 1468 1467 1467 1466 1465 1465 1464 1464 1463 1462 1461 1460 1459 1457 1455 1453 1452 1450 1448 1445 1443 1441 1439 1437 1435 1432 1430 1428 1426 1424 1422 1420 1418 1417 1415 1414 1413 1411 1410 1409 1409 1408
1465 1465 1464 1463 1463 1462 1461 1461 1460 1459 1459 1458 1457 1455 1454 1452 1450 1449 1447 1445 1443 1441 1439 1436 1434 1432 1429 1427 1425 1423 1421 1418 1416 1415 1413 1411 1409 1408 1406 1405 1403 1403 1402
1462 1461 1461 1460 1459 1458 1458 1457 1456 1456 1455 1454 1453 1452 1450 1449 1447 1445 1444 1442 1440 1438 1436 1434 1431 1429 1427 1424 1422 1420 1417 1415 1413 1411 1409 1407 1405 1403 1402 1400 1398 1397 1396
1459 1458 1457 1456 1455 1455 1454 1453 1452 1452 1451 1450 1449 1448 1447 1446 1444 1442 1441 1439 1437 1435 1433 1431 1428 1426 1424 1422 1419 1417 1414 1411 1409 1407 1405 1403 1401 1399 1398 1396 1394 1392 1391
1456 1454 1453 1452 1451 1451 1450 1449 1448 1447 1447 1446 1446 1445 1443 1442 1441 1439 1438 1436 1434 1432 1430 1428 1425 1423 1421 1419 1416 1414 1411 1409 1406 1404 1401 1399 1397 1395 1394 1392 1390 1388 1387
1451 1450 1449 1448 1447 1446 1445 1444 1443 1443 1443 1442 1442 1441 1440 1438 1437 1436 1434 1433 1431 1429 1426 1424 1422 1420 1418 1416 1413 1411 1409 1406 1403 1400 1398 1395 1393 1391 1390 1388 1386 1385 1383
1447 1445 1444 1443 1442 1441 1441 1440 1439 1439 1438 1438 1437 1437 1436 1434 1433 1432 1430 1429 1427 1425 1423 1421 1419 1417 1415 1412 1410 1408 1406 1403 1400 1397 1395 1392 1389 1388 1386 1384 1383 1381 1379
1442 1441 1439 1438 1437 1437 1436 1435 1435 1434 1434 1433 1433 1432 1431 1430 1429 1428 1427 1425 1423 1421 1419 1418 1415 1413 1411 1409 1407 1405 1402 1400 1397 1394 1391 1389 1386 1384 1383 1381 1379 1377 1376
1436 1435 1434 1433 1433 1432 1431 1431 1430 1430 1429 1429 1428 1427 1427 1426 1425 1424 1422 1421 1420 1418 1416 1414 1412 1410 1407 1406 1404 1402 1399 1397 1394 1391 1388 1386 1383 1381 1379 1378 1376 1374 1372
1431 1430 1429 1429 1428 1427 1427 1426 1426 1425 1424 1424 1423 1422 1422 1421 1420 1419 1418 1416 1415 1414 1412 1410 1408 1406 1404 1402 1400 1398 1396 1393 1391 1388 1385 1382 1380 1378 1376 1374 1373 1371 1369